KC9VAF Weather Reports


Display with metric or nautical units.
time (UTC)temp
F
wind
direction
speed
MPH
gust
MPH
rain 1hr
in
rain 24hr
in
rain mn
in
humidity
%
barometer
mb
20260503220803 68 201 3.0 6.0 0.00 0.00 0.00 45 1005.6
20260503220300 68 201 5.0 15.0 0.00 0.00 0.00 44 1005.8
20260503215757 68 211 8.0 11.0 0.00 0.00 0.00 44 1005.5
20260503215254 68 253 6.0 9.0 0.00 0.00 0.00 44 1005.7
20260503214752 67 296 5.0 7.0 0.00 0.00 0.00 44 1005.9
20260503214249 67 120 6.0 9.0 0.00 0.00 0.00 44 1006.0
20260503213747 68 250 8.0 9.0 0.00 0.00 0.00 43 1006.0
20260503213244 68 162 5.0 6.0 0.00 0.00 0.00 43 1006.0
20260503212740 68 212 6.0 7.0 0.00 0.00 0.00 43 1006.1
20260503212238 68 114 3.0 3.0 0.00 0.00 0.00 44 1005.7
20260503211736 68 226 5.0 8.0 0.00 0.00 0.00 43 1006.1
20260503211232 68 304 6.0 7.0 0.00 0.00 0.00 45 1005.9
20260503210727 67 198 5.0 7.0 0.00 0.00 0.00 45 1006.3
20260503210225 67 234 6.0 8.0 0.00 0.00 0.00 44 1006.3
20260503205720 66 139 5.0 8.0 0.00 0.00 0.00 48 1006.3
20260503205216 65 236 2.0 2.0 0.00 0.00 0.00 49 1006.4
20260503204713 67 210 9.0 10.0 0.00 0.00 0.00 47 1006.3
20260503204211 66 173 4.0 6.0 0.00 0.00 0.00 50 1006.3
20260503203708 65 163 7.0 9.0 0.00 0.00 0.00 50 1006.7
20260503203205 65 251 9.0 11.0 0.00 0.00 0.00 49 1007.1
20260503202703 66 247 7.0 9.0 0.00 0.00 0.00 49 1006.8
20260503202200 65 161 2.0 2.0 0.00 0.00 0.00 51 1007.0
20260503201658 64 357 7.0 16.0 0.00 0.00 0.00 52 1007.3
20260503201155 64 170 5.0 7.0 0.00 0.00 0.00 50 1007.5
20260503200651 64 216 8.0 18.0 0.00 0.00 0.00 50 1007.5
20260503200148 64 195 4.0 5.0 0.00 0.00 0.00 49 1007.4
20260503195645 65 323 7.0 8.0 0.00 0.00 0.00 47 1007.6
20260503195142 65 26 5.0 10.0 0.00 0.00 0.00 47 1007.5
20260503194639 65 186 5.0 7.0 0.00 0.00 0.00 46 1007.7
20260503194134 65 0 7.0 11.0 0.00 0.00 0.00 46 1007.6
20260503193631 66 158 6.0 11.0 0.00 0.00 0.00 44 1007.6
20260503193127 65 352 7.0 10.0 0.00 0.00 0.00 44 1007.7
20260503192622 66 290 8.0 11.0 0.00 0.00 0.00 45 1007.6
20260503192118 66 229 4.0 6.0 0.00 0.00 0.00 44 1007.7
20260503191615 65 186 10.0 16.0 0.00 0.00 0.00 44 1007.7
20260503191112 66 206 4.0 6.0 0.00 0.00 0.00 47 1007.7
20260503190609 65 251 3.0 5.0 0.00 0.00 0.00 45 1007.9
20260503190106 66 178 8.0 14.0 0.00 0.00 0.00 44 1007.9
20260503185603 66 158 8.0 11.0 0.00 0.00 0.00 43 1007.8
20260503185103 65 201 3.0 3.0 0.00 0.00 0.00 46 1007.8
20260503184558 64 130 10.0 13.0 0.00 0.00 0.00 43 1008.0
20260503184055 65 140 5.0 6.0 0.00 0.00 0.00 46 1008.2
20260503183552 64 253 5.0 8.0 0.00 0.00 0.00 46 1008.2
20260503183049 64 117 4.0 6.0 0.00 0.00 0.00 47 1008.2
20260503182547 64 252 4.0 6.0 0.00 0.00 0.00 49 1008.5
20260503182045 63 160 7.0 13.0 0.00 0.00 0.00 52 1008.4
20260503181542 62 324 5.0 7.0 0.00 0.00 0.00 52 1008.5
20260503181038 62 204 7.0 8.0 0.00 0.00 0.00 53 1008.8
20260503180535 63 207 6.0 10.0 0.00 0.00 0.00 53 1008.7
20260503180033 61 194 4.0 7.0 0.00 0.00 0.00 54 1008.9
20260503175530 61 253 5.0 9.0 0.00 0.00 0.00 55 1009.3
20260503175027 61 224 3.0 3.0 0.00 0.00 0.00 57 1009.2
20260503174524 61 198 7.0 9.0 0.00 0.00 0.00 56 1009.3
20260503174020 60 232 6.0 7.0 0.00 0.00 0.00 56 1009.3
20260503173516 59 142 7.0 9.0 0.00 0.00 0.00 57 1009.3
20260503173012 58 131 3.0 5.0 0.00 0.00 0.00 58 1009.7
20260503172510 58 74 4.0 6.0 0.00 0.00 0.00 59 1009.6
20260503172007 57 139 5.0 7.0 0.00 0.00 0.00 60 1009.7
20260503171503 57 157 9.0 16.0 0.00 0.00 0.00 59 1009.8
20260503171001 58 188 6.0 9.0 0.00 0.00 0.00 60 1009.9
20260503170457 57 68 2.0 3.0 0.00 0.00 0.00 64 1010.1
20260503150849 60 205 7.0 10.0 0.00 0.00 0.00 55 1011.4
20260503150345 60 247 5.0 8.0 0.00 0.00 0.00 54 1011.3
20260503140309 56 183 7.0 10.0 0.00 0.00 0.00 55 1011.9
20260503131239 52 224 6.0 10.0 0.00 0.00 0.00 58 1012.4
20260503130737 52 234 4.0 6.0 0.00 0.00 0.00 58 1012.1
20260503130234 52 216 4.0 5.0 0.00 0.00 0.00 58 1012.3
20260503120200 49 62 4.0 6.0 0.00 0.00 0.00 59 1012.4
20260503110627 48 143 4.0 8.0 0.00 0.00 0.00 58 1012.3
20260503110124 48 203 4.0 5.0 0.00 0.00 0.00 58 1012.2
20260503081440 47 118 1.0 1.0 0.00 0.00 0.00 59 1013.6
20260503080937 47 242 2.0 2.0 0.00 0.00 0.00 60 1013.5
20260503080433 47 139 1.0 2.0 0.00 0.00 0.00 60 1013.6
20260503072910 45 159 1.0 1.0 0.00 0.00 0.00 62 1013.5
20260503072408 45 296 2.0 3.0 0.00 0.00 0.00 64 1013.6
20260503071904 44 105 1.0 2.0 0.00 0.00 0.00 64 1013.7
20260503071402 44 94 0.0 1.0 0.00 0.00 0.00 66 1013.6
20260503070857 43 86 1.0 1.0 0.00 0.00 0.00 67 1013.8
20260503070355 43 93 0.0 1.0 0.00 0.00 0.00 68 1013.9
20260503060320 41 108 0.0 1.0 0.00 0.00 0.00 72 1014.2
20260503054808 41 101 1.0 1.0 0.00 0.00 0.00 75 1014.5
20260503054304 41 93 0.0 0.0 0.00 0.00 0.00 75 1014.5
20260503053802 40 94 0.0 1.0 0.00 0.00 0.00 76 1014.5
20260503053300 40 94 0.0 0.0 0.00 0.00 0.00 77 1014.5
20260503052756 40 92 0.0 0.0 0.00 0.00 0.00 78 1014.4
20260503052254 40 96 0.0 0.0 0.00 0.00 0.00 79 1014.5
20260503051749 40 93 0.0 0.0 0.00 0.00 0.00 79 1014.6
20260503051246 39 95 1.0 1.0 0.00 0.00 0.00 80 1014.4
20260503050743 39 92 0.0 0.0 0.00 0.00 0.00 82 1014.9
20260503050239 39 89 0.0 0.0 0.00 0.00 0.00 82 1014.7
20260503045737 39 93 0.0 1.0 0.00 0.00 0.00 82 1014.8
20260503045234 39 94 0.0 0.0 0.00 0.00 0.00 82 1014.8
20260503044730 39 99 1.0 1.0 0.00 0.00 0.00 83 1014.8
20260503044228 39 88 0.0 0.0 0.00 0.00 0.00 83 1014.8
20260503043725 39 108 1.0 1.0 0.00 0.00 0.00 83 1014.6
20260503043222 39 90 0.0 0.0 0.00 0.00 0.00 83 1014.7
20260503042718 39 85 0.0 0.0 0.00 0.00 0.00 84 1014.9
20260503042215 39 93 0.0 0.0 0.00 0.00 0.00 84 1014.8
20260503041710 39 85 0.0 0.0 0.00 0.00 0.00 83 1015.0
20260503041209 39 94 0.0 0.0 0.00 0.00 0.00 83 1014.8
20260503040706 40 97 0.0 0.0 0.00 0.00 0.00 83 1014.8
20260503040203 40 90 0.0 0.0 0.00 0.00 0.00 83 1015.1
20260503035700 40 93 0.0 0.0 0.00 0.00 0.00 83 1015.1
20260503035157 40 85 0.0 0.0 0.00 0.00 0.00 82 1015.2
20260503034655 40 93 0.0 0.0 0.00 0.00 0.00 82 1015.2
20260503034151 40 88 0.0 1.0 0.00 0.00 0.00 81 1015.2
20260503033649 41 92 0.0 0.0 0.00 0.00 0.00 80 1015.2
20260503033146 41 93 0.0 0.0 0.00 0.00 0.00 80 1015.2
20260503032644 41 99 1.0 1.0 0.00 0.00 0.00 80 1015.3
20260503032143 41 90 1.0 1.0 0.00 0.00 0.00 80 1015.4
20260503031639 41 101 1.0 1.0 0.00 0.00 0.00 79 1015.6
20260503031137 41 97 0.0 1.0 0.00 0.00 0.00 79 1015.6
20260503030633 41 111 1.0 1.0 0.00 0.00 0.00 79 1015.3
20260503030130 41 99 1.0 2.0 0.00 0.00 0.00 79 1015.6
20260503025627 42 99 1.0 1.0 0.00 0.00 0.00 78 1015.4
20260503025125 42 91 1.0 1.0 0.00 0.00 0.00 77 1015.9
20260503024621 42 116 1.0 1.0 0.00 0.00 0.00 76 1015.8
20260503024118 42 115 3.0 3.0 0.00 0.00 0.00 77 1015.8
20260503023615 42 105 1.0 1.0 0.00 0.00 0.00 76 1015.7
20260503023113 42 99 1.0 1.0 0.00 0.00 0.00 76 1015.7
20260503022608 42 126 2.0 2.0 0.00 0.00 0.00 76 1015.6
20260503022103 42 95 0.0 1.0 0.00 0.00 0.00 76 1015.6
20260503021600 42 92 1.0 1.0 0.00 0.00 0.00 75 1015.6
20260503021057 42 110 1.0 2.0 0.00 0.00 0.00 76 1015.7
20260503020554 42 83 0.0 1.0 0.00 0.00 0.00 75 1015.7
20260503020051 42 119 1.0 2.0 0.00 0.00 0.00 75 1015.6
20260503015547 43 93 0.0 1.0 0.00 0.00 0.00 74 1015.7
20260503015045 43 129 1.0 1.0 0.00 0.00 0.00 72 1015.7
20260503014540 43 140 1.0 1.0 0.00 0.00 0.00 72 1015.7
20260503014039 43 114 1.0 1.0 0.00 0.00 0.00 72 1015.3
20260503013535 43 95 1.0 1.0 0.00 0.00 0.00 72 1015.4
20260503013033 43 115 2.0 2.0 0.00 0.00 0.00 71 1015.7
20260503012531 44 86 0.0 0.0 0.00 0.00 0.00 70 1015.4
20260503012027 44 96 1.0 2.0 0.00 0.00 0.00 69 1015.4
20260503011523 44 74 3.0 3.0 0.00 0.00 0.00 68 1015.4
20260503011021 44 113 0.0 0.0 0.00 0.00 0.00 68 1015.3
20260503010517 45 95 1.0 1.0 0.00 0.00 0.00 67 1015.7
20260503010015 45 154 3.0 3.0 0.00 0.00 0.00 66 1015.6
20260503005511 45 123 3.0 5.0 0.00 0.00 0.00 66 1015.3
20260503005009 45 124 2.0 2.0 0.00 0.00 0.00 65 1015.6
20260503004504 46 87 0.0 1.0 0.00 0.00 0.00 65 1015.4
20260503004003 46 104 1.0 1.0 0.00 0.00 0.00 64 1015.7
20260503003459 46 140 1.0 1.0 0.00 0.00 0.00 63 1015.7
20260503002956 47 175 2.0 3.0 0.00 0.00 0.00 63 1015.8
20260503002453 47 98 2.0 3.0 0.00 0.00 0.00 61 1015.7
20260503001949 47 124 3.0 3.0 0.00 0.00 0.00 61 1015.7
20260503001446 48 121 1.0 1.0 0.00 0.00 0.00 60 1015.9
20260503000944 48 82 1.0 2.0 0.00 0.00 0.00 59 1015.8
20260503000441 48 174 2.0 2.0 0.00 0.00 0.00 58 1015.8
20260502235938 48 119 3.0 3.0 0.00 0.00 0.00 58 1016.1
20260502235435 48 100 0.0 1.0 0.00 0.00 0.00 57 1015.8
20260502234933 49 135 2.0 2.0 0.00 0.00 0.00 56 1016.0
20260502234429 50 105 1.0 1.0 0.00 0.00 0.00 55 1016.0
20260502233926 50 102 2.0 2.0 0.00 0.00 0.00 54 1015.9
20260502233421 50 129 1.0 1.0 0.00 0.00 0.00 54 1016.3
20260502232919 50 92 1.0 2.0 0.00 0.00 0.00 53 1016.3
20260502232415 50 95 1.0 1.0 0.00 0.00 0.00 54 1016.2
20260502231912 51 198 4.0 6.0 0.00 0.00 0.00 52 1016.0
20260502231409 50 68 3.0 3.0 0.00 0.00 0.00 54 1016.3
20260502230908 51 120 2.0 2.0 0.00 0.00 0.00 54 1016.2
20260502230405 51 109 1.0 2.0 0.00 0.00 0.00 53 1016.1
20260502225903 51 103 1.0 2.0 0.00 0.00 0.00 52 1016.3
20260502225358 51 84 1.0 1.0 0.00 0.00 0.00 50 1016.3
20260502224855 51 118 4.0 7.0 0.00 0.00 0.00 51 1016.4
20260502224351 52 137 1.0 2.0 0.00 0.00 0.00 51 1016.5
20260502223849 52 201 2.0 3.0 0.00 0.00 0.00 51 1016.5
20260502223347 51 117 1.0 2.0 0.00 0.00 0.00 52 1016.5
20260502222844 50 136 4.0 6.0 0.00 0.00 0.00 52 1016.7
20260502222342 52 104 2.0 2.0 0.00 0.00 0.00 52 1016.4
20260502221837 51 215 4.0 6.0 0.00 0.00 0.00 52 1016.6
20260502221334 51 75 2.0 3.0 0.00 0.00 0.00 50 1016.7